Weather History for Fairbanks, AK

Change the Weather History Date:

Saturday, May 31, 2014

  Actual Average Record
Temperature  
Mean Temperature 58 °F 55 °F  
Max Temperature 69 °F 67 °F 84 °F (1958)
Min Temperature 46 °F 44 °F 30 °F (1933)
Degree Days  
Heating Degree Days 7 10  
Month to date heating degree days 416 486  
Since 1 July heating degree days 12309 13509  
Cooling Degree Days 0 0  
Month to date cooling degree days 0 1  
Year to date cooling degree days 0 1  
Growing Degree Days 8 (Base 50)    
Moisture  
Dew Point 38 °F    
Average Humidity 50    
Maximum Humidity 73    
Minimum Humidity 26    
Precipitation  
Precipitation 0.02 in 0.02 in 0.45 in (1981)
Month to date precipitation 0.06 0.60  
Year to date precipitation 1.09 2.16  
Snow  
Snow 0.00 in 0.00 in T in (1933)
Month to date snowfall T 0.9  
Since 1 July snowfall 48.9 65.0  
Snow Depth 0.00 in    
Sea Level Pressure  
Sea Level Pressure 29.64 in    
Wind  
Wind Speed 8 mph (WSW)    
Max Wind Speed 32 mph    
Max Gust Speed 43 mph    
Visibility 9 miles    
Events Rain    
T = Trace of Precipitation, MM = Missing Value Source: NWS Daily Summary

Daily Weather History Graph

Daily Weather History Graph

Search for Another Location

Airport:

Trip Planner

Search our weather history database for the weather conditions in past years. The results will help you decide how hot, cold, wet, or windy it might be!

Date:

Astronomy

May. 31, 2014 Rise Set
Actual Time 3:36 AM AKDT 12:04 AM AKDT
Civil Twilight Sun does not rise Sun does not rise
Nautical Twilight Sun does not rise Sun does not rise
Astronomical Twilight Sun does not rise Sun does not rise
Moon 7:17 AM AKDT (5/31) 12:52 AM AKDT (5/31)
Length of Visible Light 24h 00m
Length of Day
20h 28m
Waxing Crescent, 9% of the Moon is Illuminated
May 31
Waxing Crescent
Jun 5
First Quarter
Jun 12
Full
Jun 19
Last Quarter
Jun 27
New

Hourly Weather History & Observations

Time (AKDT) Temp. Windchill Dew Point Humidity Pressure Visibility Wind Dir Wind Speed Gust Speed Precip Events Conditions
12:53 AM 59.0 °F - 39.0 °F 48% 29.49 in 10.0 mi East 3.5 mph - N/A   Mostly Cloudy
1:53 AM 57.9 °F - 37.9 °F 47% 29.49 in 10.0 mi North 3.5 mph - N/A   Mostly Cloudy
2:53 AM 57.0 °F - 41.0 °F 55% 29.50 in 10.0 mi Calm Calm - N/A   Mostly Cloudy
3:53 AM 55.0 °F - 43.0 °F 64% 29.49 in 10.0 mi NNE 4.6 mph - N/A   Overcast
4:53 AM 55.9 °F - 39.9 °F 55% 29.49 in 10.0 mi NNE 4.6 mph - N/A   Mostly Cloudy
5:53 AM 54.0 °F - 42.1 °F 64% 29.50 in 10.0 mi Calm Calm - N/A   Mostly Cloudy
6:53 AM 55.4 °F - 44.6 °F 67% 29.49 in 10.0 mi Calm Calm - N/A   Mostly Cloudy
7:53 AM 57.9 °F - 41.0 °F 53% 29.50 in 10.0 mi NNE 4.6 mph - N/A   Mostly Cloudy
8:53 AM 59.0 °F - 39.0 °F 48% 29.49 in 10.0 mi ENE 5.8 mph - N/A   Mostly Cloudy
9:53 AM 61.0 °F - 39.0 °F 44% 29.50 in 10.0 mi ENE 5.8 mph - N/A   Mostly Cloudy
10:53 AM 63.0 °F - 39.9 °F 43% 29.51 in 10.0 mi ENE 6.9 mph - N/A   Mostly Cloudy
11:53 AM 66.9 °F - 39.0 °F 36% 29.51 in 10.0 mi Calm Calm - N/A   Mostly Cloudy
12:53 PM 61.0 °F - 41.0 °F 48% 29.53 in 8.0 mi West 19.6 mph 28.8 mph 0.00 in Rain Light Rain
1:53 PM 66.0 °F - 33.1 °F 29% 29.55 in 10.0 mi WSW 27.6 mph 41.4 mph 0.00 in   Mostly Cloudy
2:36 PM 63.0 °F - 28.0 °F 27% 29.60 in 3.0 mi WSW 32.2 mph 39.1 mph 0.00 in Rain Light Rain
2:53 PM 62.6 °F - 26.6 °F 26% 29.62 in 3.0 mi SW 21.9 mph 42.6 mph N/A   Widespread Dust
3:53 PM 55.9 °F - 36.0 °F 47% 29.70 in 4.0 mi SW 20.7 mph 41.4 mph N/A   Haze
4:37 PM 52.0 °F - 37.0 °F 57% 29.74 in 6.0 mi WSW 23.0 mph 31.1 mph N/A   Haze
4:53 PM 51.1 °F - 36.0 °F 56% 29.76 in 10.0 mi WSW 21.9 mph 35.7 mph N/A   Mostly Cloudy
5:53 PM 53.1 °F - 35.1 °F 50% 29.80 in 10.0 mi WSW 17.3 mph 25.3 mph N/A   Mostly Cloudy
6:53 PM 52.0 °F - 35.1 °F 53% 29.83 in 10.0 mi WSW 17.3 mph 27.6 mph N/A   Mostly Cloudy
7:53 PM 52.0 °F - 34.0 °F 50% 29.85 in 10.0 mi WSW 15.0 mph - N/A   Mostly Cloudy
8:53 PM 48.9 °F - 36.0 °F 61% 29.89 in 10.0 mi SW 9.2 mph 21.9 mph 0.00 in Rain Light Rain
9:53 PM 46.9 °F - 36.0 °F 66% 29.92 in 10.0 mi SW 10.4 mph 17.3 mph 0.00 in Rain Light Rain
10:53 PM 46.0 °F 43.1 °F 37.9 °F 73% 29.94 in 10.0 mi SSW 5.8 mph - 0.02 in   Overcast
11:53 PM 46.9 °F - 35.1 °F 63% 29.96 in 10.0 mi SSW 5.8 mph - N/A   Overcast